Tracking 30703 objects as of 12-Jun-2025
HD Live streaming from Space Station
objects crossing your sky now

INTELSAT 502

Track INTELSAT 502 now!
INTELSAT 502 is classified as:


NORAD ID: 12089
Int'l Code: 1980-098A
Perigee: 36,148.6 km
Apogee: 36,220.9 km
Inclination: 11.8 °
Period: 1,456.1 minutes
Semi major axis: 42555 km
RCS: 13.5237 m2 (large)
Launch date: December 6, 1980
Source: International Telecommunications Satellite Organization (ITSO)
Launch site: AIR FORCE EASTERN TEST RANGE (AFETR)
Your satellite tracking list
Your tracking list is empty




NASA's NSSDC Master Catalog

Two Line Element Set (TLE):
1 12089U 80098A   25162.62678192 -.00000141  00000-0  00000-0 0  9999
2 12089  11.8084 329.3296 0008487 298.3870  44.0306  0.98893017130053
Source of the keplerian elements: AFSPC